Mpanda Airport

Jump to: basic info | weather | comments

Related pages: nearby airports | nearby navaids | notams | map

Basic information (top)

Codes: HTMP
Location: lon -6.350000, lat 31.083000, elev 3,520 ft / 1,073 m msl
Status: small_airport

Weather (top)

Current conditions for Sumbawanga Airport 103nm (191km) SSE (rec'd 2015/04/17 13:00Z):

HTSU 171300Z 06005KT 9999 FEW016 BKN220 21/14 Q1022

Airport forecast for Julius Nyerere International Airport 485nm (899km) E (rec'd 2015/04/21 12:51Z):

TAF HTDA 211100Z 2112/2218 14010KT 9999 BKN027 FEW028CB 
      TEMPO 2113/2115 SHRA 
      BECMG 2120/2201 00000KT BKN023 
      TEMPO 2204/2210 TSRA BKN021 FEW022CB BKN090 
      BECMG 2214/2217 18010KT SCT026 FEW027CB BKN070

Latest comments (top)

re: Uwanja wa ndege Mpanda: Thanks God Mpanda is on the right path, ... [read]

Uwanja wa ndege Mpanda: Uwanja ni mzuri saana, [read]

matengenezo: uwanja ukikamilika utakuwa mzuri.mmejitahidi. [read]

More... (top)

See also NOTAMs and nearby airports and navaids, or visit the Mpanda Airport page at the main OurAirports website..